Regional Weather Roundup
Issued by NWS Sioux Falls, SD

Home | Current Version | Previous Version | Text Only | Print | Product List | Glossary On
Versions: 1 2 3 4 5 6 7 8 9 10 11 12 13 14 15 16 17 18 19 20 21 22 23 24 25 26 27 28 29 30 31 32 33 34 35 36 37 38 39 40 41 42 43 44 45 46 47 48 49 50
000
ASUS43 KFSD 201902
RWRFSD

WEATHER ROUNDUP FOR SE SOUTH DAKOTA/SW MINNESOTA/NW IOWA
NATIONAL WEATHER SERVICE SIOUX FALLS SD
200 PM CDT MON OCT 20 2014

NOTE: "FAIR" INDICATES FEW OR NO CLOUDS BELOW 12,000 FEET WITH NO
SIGNIFICANT WEATHER AND OR OBSTRUCTIONS TO VISIBILITY.


SDZ038>040-050-052>070-202000-
SOUTHEAST SOUTH DAKOTA

CITY           SKY/WX    TMP DP  RH WIND       PRES   REMARKS
CHAMBERLAIN    SUNNY     70  34  26 S9        30.06F
HURON          SUNNY     69  35  28 CALM      30.06F
MADISON        FAIR      66  39  37 NW7       30.06F
MITCHELL       SUNNY     69  35  28 SW3       30.07F
SIOUX FALLS    MOSUNNY   69  41  36 W8        30.05F
WINNER         FAIR      74  38  27 S10       30.06F
YANKTON        SUNNY     68  37  32 CALM      30.07F
$$

MNZ071-072-080-081-089-090-097-098-202000-
SOUTHWEST MINNESOTA

CITY           SKY/WX    TMP DP  RH WIND       PRES   REMARKS
FAIRMONT       SUNNY     66  37  34 NW15G21   30.01F
JACKSON        SUNNY     68  34  28 NW12      30.03F
LUVERNE        SUNNY     70  34  26 NW8       30.05F
MARSHALL       SUNNY     66  39  37 N14       30.03F
MONTEVIDEO     SUNNY     68  43  40 N10       30.03F
PIPESTONE      SUNNY     66  36  32 NW14      30.05S
REDWOOD FALLS  SUNNY     67  40  37 NW13G21   30.02F
TRACY          SUNNY     67  40  36 NW12G20   30.04F
WINDOM         SUNNY     66  39  37 NW14G22   30.03F
WORTHINGTON    SUNNY     66  37  34 NW14      30.05F
$$

IAZ001>003-012>014-020>022-031-032-NEZ013-014-SDZ071-202000-
NORTHWEST IOWA

CITY           SKY/WX    TMP DP  RH WIND       PRES   REMARKS
CHEROKEE       SUNNY     67  40  36 NW9       30.04F
DENISON        SUNNY     68  41  37 N12G18    30.04F
ESTHERVILLE    SUNNY     67  39  35 N15       30.02F
LE MARS        SUNNY     70  39  32 NW13      30.06F
ORANGE CITY    SUNNY     70  36  28 NW8       30.06S
SHELDON        SUNNY     70  37  30 N10G17    30.04F
SIOUX CITY     SUNNY     70  41  34 N9        30.07F
SPENCER        SUNNY     69  38  32 NW13G21   30.04F
STORM LAKE     SUNNY     68  37  32 NW9G16    30.05F
$$

ABBREVIATIONS USED IN REMARKS
   TC - TEMPERATURE IN CELSIUS
  WCI - WIND CHILL INDEX
   HX - HEAT INDEX
  VSB - VISIBILITY




USA.gov is the U.S. government's official web portal to all federal, state and local government web resources and services.